Regional Weather Roundup
Issued by NWS Boston, MA

Current Version | Previous Version | Text Only | Print | Product List | Glossary Off
Versions: 1 2 3 4 5 6 7 8 9 10 11 12 13 14 15 16 17 18 19 20 21 22 23 24 25 26 27 28 29 30 31 32 33 34 35 36 37 38 39 40 41 42 43 44 45 46 47 48 49 50
000 ASUS41 KBOX 292110 RWRBOX REGIONAL WEATHER ROUNDUP NATIONAL WEATHER SERVICE TAUNTON MA 500 PM EDT SAT APR 29 2017 NOTE: "FAIR" INDICATES FEW OR NO CLOUDS BELOW 12,000 FEET WITH NO SIGNIFICANT WEATHER AND/OR OBSTRUCTIONS TO VISIBILITY. MAZALL-292200- EASTERN MASSACHUSETTS CITY SKY/WX TMP DP RH WIND PRES REMARKS BOSTON CLOUDY 83 56 39 W17G30 29.83R BEVERLY CLOUDY 80 56 43 W15G26 29.82R LAWRENCE CLOUDY 80 54 40 W15G25 29.86R BEDFORD CLOUDY 79 51 37 W23G36 29.85R BLUE HILL N/A 82 54 37 W18G31 29.85R NORWOOD CLOUDY 84 56 38 W23 29.84R MARSHFIELD CLOUDY 86 59 39 W12G23 29.82R PLYMOUTH PTSUNNY 83 61 47 SW16G26 29.84R TAUNTON PTSUNNY 80 62 54 SW8 29.85R NEW BEDFORD MOSUNNY 80 62 54 W17G25 29.86R $$ MAZALL-292200- CAPE COD AND THE ISLANDS CITY SKY/WX TMP DP RH WIND PRES REMARKS FALMOUTH MOSUNNY 70 59 68 MISG 29.88R HYANNIS MOSUNNY 74 62 66 SW12 29.85R CHATHAM CLOUDY 66 59 78 SW12G18 29.87R PROVINCETOWN CLOUDY 67 59 75 SW18G24 29.84R NANTUCKET MOSUNNY 63 57 81 W21G31 29.89R MARTHAS VNYRD MOSUNNY 75 61 61 SW20G28 29.88R $$ MAZALL-292200- CENTRAL AND WESTERN MASSACHUSETTS CITY SKY/WX TMP DP RH WIND PRES REMARKS WORCESTER PTSUNNY 75 51 43 W23G33 29.92R FITCHBURG CLOUDY 78 53 41 NW24G38 29.90R ORANGE CLOUDY 73 53 49 W16G28 29.95R SPRINGFIELD CLOUDY 76 54 45 NW21 29.93R WESTFIELD CLOUDY 76 54 46 NW18G24 29.95R NORTH ADAMS CLOUDY 66 48 52 W21G30 30.00R PITTSFIELD CLOUDY 64 49 57 NW15G29 30.01R $$ RIZALL-292200- RHODE ISLAND CITY SKY/WX TMP DP RH WIND PRES REMARKS PROVIDENCE PTSUNNY 86 59 39 W20G31 29.87R NEWPORT MOSUNNY 70 60 70 SW10G22 29.88R BLOCK ISLAND CLOUDY 64 57 78 SW20G29 29.92R SMITHFIELD CLOUDY 81 58 45 NW20G26 29.89R WESTERLY MOSUNNY 73 58 59 SW14G22 29.90S $$ CTZALL-292200- CONNECTICUT CITY SKY/WX TMP DP RH WIND PRES REMARKS BRADLEY INTL CLOUDY 82 55 39 NW21G26 29.91R HARTFORD MOSUNNY 82 59 45 W12G25 29.91R BRIDGEPORT MOSUNNY 86 59 39 W23G33 29.93R DANBURY PTSUNNY 80 58 46 W16G28 29.97R GROTON PTSUNNY 78 60 53 W17G26 29.89R NEW HAVEN PTSUNNY 80 57 45 W12G23 29.93R CHESTER FAIR 84 59 42 W13G22 29.92S MERIDEN PTSUNNY 84 58 40 W9G24 29.92S WILLIMANTIC PTSUNNY 85 58 39 W9G24 29.90R OXFORD PTSUNNY 81 55 41 W12G23 29.99R $$ MEZ002-015-021-024-NHZ003-005-008-011-012-014-VTZ005-008-292200- NORTHERN NEW ENGLAND CITY SKY/WX TMP DP RH WIND PRES REMARKS PORTLAND ME CLOUDY 77 49 37 W18G26 29.78S BANGOR ME CLOUDY 76 44 32 W13G24 29.71R CONCORD NH CLOUDY 76 50 40 W15G30 29.86R MANCHESTER NH CLOUDY 78 50 37 W15G22 29.85R NASHUA NH CLOUDY 78 54 43 W13G26 29.87R PORTSMOUTH NH PTSUNNY 79 51 37 W13G20 29.81R JAFFREY NH CLOUDY 73 53 49 W15G25 29.94R KEENE NH CLOUDY 73 53 49 W13G18 29.93R BURLINGTON VT PTSUNNY 72 41 32 W15G23 29.91R MT. WASHINGTON PTSUNNY 43 39 87 W59G69 N/A WCI 29 $$ NYZ052-076-292200- EASTERN NEW YORK CITY SKY/WX TMP DP RH WIND PRES REMARKS ALBANY CLOUDY 66 48 52 W13G25 30.05R NEW YORK CITY PTSUNNY 85 56 37 W25G40 29.97R $$ ANZALL-292200- MARINE OBSERVATIONS STATION/POSITION TIME TEMP WIND PRES VSBY WAVE AIR SEA DIR/SP/G HT/PER (UTC) (F) (DEG/KT/KT) (MB) (MI) (FT/S) BOSTON BUOY 1950 63 50 250/ 8/ 10 1008.8 2/10 BUZZARDS BAY 2000 55 230/ 27/ 29 1011.3F NANTUCKET SOUND 2050 49 1011.1R 1/ 4 MASS BAY-STELLWA 2004 60 50 250/ 10/ 12 1008.2F 3/ 9 ISLE OF SHOALS 2000 77 260/ 23/ 25 1008.0F S OF BLOCK IS 2055 49 N/A 4/ 7 $$ ......................KEY......................... SKY/WX - SKY CONDITION/PRESENT WEATHER TMP - TEMPERATURE IN FAHRENHEIT DWPT - DEWPOINT IN FAHRENHEIT RH - RELATIVE HUMIDITY IN PERCENT WIND - DIRECTION AND SPEED IN MPH PRES - MEAN SEA LEVEL PRESSURE IN INCHES OF HG WCI - WIND CHILL INDEX VSB - VISIBILITY IN MILES HX - HEAT INDEX TC - TEMPERATURE IN CELSIUS VRB - VARIABLE WIND DIRECTION N/A - NOT AVAILABLE

USA.gov is the U.S. government's official web portal to all federal, state and local government web resources and services.